Sheldon, IA

2:28 AM CDT on May 24, 2017 (GMT -0500)
Sheldon Municipal

Weather History for KSHL - February, 2013

Change the Weather History Date:

Saturday, February 2, 2013

  Actual Average Record
Temperature  
Mean Temperature 20 °F -  
Max Temperature 33 °F 24 °F 51 °F (1987)
Min Temperature 8 °F 4 °F -22 °F (1978)
Degree Days  
Heating Degree Days 44    
Moisture  
Dew Point 16 °F    
Average Humidity 86    
Maximum Humidity 100    
Minimum Humidity 63    
Precipitation  
Precipitation 0.02 in - - ()
Sea Level Pressure  
Sea Level Pressure 30.05 in    
Wind  
Wind Speed 10 mph (WNW)    
Max Wind Speed 34 mph    
Max Gust Speed 40 mph    
Visibility 8 miles    
Events Snow    
Averages and records for this station are not official NWS values.
T = Trace of Precipitation, MM = Missing Value Source: NWS Daily Summary

Daily Weather History Graph

Daily Weather History Graph

Search for Another Location

Airport or City:

Trip Planner

Search our weather history database for the weather conditions in past years. The results will help you decide how hot, cold, wet, or windy it might be!

Date:

Astronomy

Feb. 02, 2013 Rise Set
Actual Time 7:37 AM CST 5:37 PM CST
Civil Twilight 7:07 AM CST 6:07 PM CST
Nautical Twilight 6:33 AM CST 6:41 PM CST
Astronomical Twilight 5:59 AM CST 7:14 PM CST
Moon No Moon Rise 10:35 AM CST (2/2)
Length of Visible Light 11h 00m
Length of Day
9h 59m
Waning Gibbous, 59% of the Moon is Illuminated
Feb 2
Waning Gibbous
Feb 3
Last Quarter
Feb 10
New
Feb 17
First Quarter
Feb 25
Full

Hourly Weather History & Observations

Time (CST) Temp. Windchill Dew Point Humidity Pressure Visibility Wind Dir Wind Speed Gust Speed Precip Events Conditions
12:15 AM 15.8 °F 2.1 °F 14.0 °F 93% 30.01 in 10.0 mi NNW 12.7 mph - N/A   Clear
12:35 AM 15.8 °F 5.1 °F 14.0 °F 93% 30.02 in 10.0 mi NW 8.1 mph 15.0 mph N/A   Scattered Clouds
12:55 AM 15.8 °F 6.1 °F 14.0 °F 93% 30.03 in 10.0 mi NW 6.9 mph - N/A   Mostly Cloudy
1:15 AM 15.8 °F 4.2 °F 14.0 °F 93% 30.03 in 10.0 mi NNW 9.2 mph - N/A   Overcast
1:35 AM 15.8 °F 3.4 °F 12.2 °F 86% 30.04 in 10.0 mi NW 10.4 mph 17.3 mph N/A   Overcast
1:55 AM 15.8 °F 2.7 °F 12.2 °F 86% 30.05 in 10.0 mi NNW 11.5 mph - N/A   Overcast
2:15 AM 15.8 °F 0.3 °F 12.2 °F 86% 30.05 in 10.0 mi NNW 16.1 mph - N/A   Overcast
2:35 AM 15.8 °F 0.9 °F 12.2 °F 86% 30.06 in 10.0 mi NNW 15.0 mph - N/A   Overcast
2:55 AM 15.8 °F 1.4 °F 10.4 °F 79% 30.06 in 10.0 mi NNW 13.8 mph - N/A   Overcast
3:15 AM 15.8 °F 2.1 °F 10.4 °F 79% 30.06 in 10.0 mi North 12.7 mph - N/A   Overcast
3:35 AM 15.8 °F 0.9 °F 10.4 °F 79% 30.07 in 10.0 mi North 15.0 mph - N/A   Overcast
3:55 AM 14.0 °F 1.2 °F 8.6 °F 79% 30.08 in 10.0 mi NNW 10.4 mph - N/A   Scattered Clouds
4:15 AM 12.2 °F -1.0 °F 8.6 °F 85% 30.09 in 10.0 mi NNW 10.4 mph - N/A   Clear
4:35 AM 12.2 °F -1.0 °F 8.6 °F 85% 30.09 in 10.0 mi NNW 10.4 mph - N/A   Clear
4:55 AM 12.2 °F -1.0 °F 8.6 °F 85% 30.10 in 10.0 mi NNW 10.4 mph - N/A   Partly Cloudy
5:15 AM 10.4 °F -0.4 °F 6.8 °F 85% 30.11 in 10.0 mi NNW 6.9 mph - N/A   Clear
5:35 AM 10.4 °F -1.5 °F 6.8 °F 85% 30.11 in 10.0 mi NNW 8.1 mph - N/A   Clear
6:15 AM 10.4 °F 0.8 °F 6.8 °F 85% 30.12 in 10.0 mi North 5.8 mph - N/A   Overcast
6:35 AM 8.6 °F 0.1 °F 6.8 °F 92% 30.12 in 10.0 mi NW 4.6 mph - N/A   Overcast
6:55 AM 10.4 °F 2.2 °F 6.8 °F 85% 30.13 in 10.0 mi NW 4.6 mph - N/A   Overcast
7:15 AM 10.4 °F 0.8 °F 8.6 °F 92% 30.12 in 10.0 mi WNW 5.8 mph - N/A   Overcast
7:35 AM 12.2 °F - 8.6 °F 85% 30.12 in 10.0 mi Calm Calm - N/A   Overcast
7:55 AM 12.2 °F - 8.6 °F 85% 30.12 in 10.0 mi Calm Calm - N/A   Overcast
8:15 AM 12.2 °F - 6.8 °F 79% 30.12 in 10.0 mi Calm Calm - N/A   Overcast
8:35 AM 12.2 °F - 6.8 °F 79% 30.13 in 10.0 mi Calm Calm - N/A   Overcast
8:55 AM 12.2 °F 6.1 °F 6.8 °F 79% 30.14 in 10.0 mi NW 3.5 mph - N/A   Overcast
9:15 AM 12.2 °F - 6.8 °F 79% 30.14 in 10.0 mi Calm Calm - N/A   Overcast
9:35 AM 14.0 °F 8.2 °F 6.8 °F 73% 30.14 in 10.0 mi North 3.5 mph - N/A   Overcast
9:55 AM 14.0 °F - 8.6 °F 79% 30.13 in 10.0 mi Calm Calm - N/A   Overcast
10:15 AM 14.0 °F - 6.8 °F 73% 30.12 in 10.0 mi Calm Calm - N/A   Overcast
10:35 AM 15.8 °F - 8.6 °F 73% 30.13 in 10.0 mi Calm Calm - N/A   Overcast
10:55 AM 15.8 °F 10.2 °F 6.8 °F 68% 30.13 in 10.0 mi WSW 3.5 mph - N/A   Overcast
11:15 AM 17.6 °F - 8.6 °F 68% 30.12 in 10.0 mi Calm Calm - N/A   Overcast
11:35 AM 19.4 °F 12.8 °F 8.6 °F 63% 30.12 in 10.0 mi Variable 4.6 mph - N/A   Overcast
11:55 AM 19.4 °F 12.8 °F 10.4 °F 68% 30.11 in 10.0 mi Variable 4.6 mph - N/A   Overcast
12:15 PM 19.4 °F 11.5 °F 8.6 °F 63% 30.10 in 9.0 mi SW 5.8 mph - N/A Snow Light Snow
12:35 PM 19.4 °F 11.5 °F 12.2 °F 74% 30.10 in 3.0 mi WSW 5.8 mph - N/A Snow Light Snow
12:55 PM 19.4 °F 9.5 °F 14.0 °F 80% 30.08 in 6.0 mi SSW 8.1 mph - N/A Snow Light Snow
1:15 PM 19.4 °F 10.4 °F 14.0 °F 80% 30.08 in 4.0 mi SW 6.9 mph - N/A Snow Light Snow
1:35 PM 21.2 °F 10.1 °F 17.6 °F 86% 30.05 in 2.0 mi SSW 10.4 mph - N/A Snow Light Snow
1:55 PM 21.2 °F 10.9 °F 17.6 °F 86% 30.04 in 3.0 mi SSW 9.2 mph - N/A Snow Light Snow
2:15 PM 21.2 °F 10.1 °F 17.6 °F 86% 30.03 in 10.0 mi SSW 10.4 mph - N/A   Overcast
2:35 PM 21.2 °F 10.1 °F 17.6 °F 86% 30.02 in 10.0 mi SSW 10.4 mph - N/A   Overcast
2:55 PM 21.2 °F 10.9 °F 17.6 °F 86% 30.02 in 10.0 mi SSW 9.2 mph - N/A   Overcast
3:15 PM 23.0 °F 11.7 °F 19.4 °F 86% 30.00 in 7.0 mi South 11.5 mph - N/A Snow Light Snow
3:35 PM 23.0 °F 12.4 °F 21.2 °F 93% 29.99 in 0.5 mi SSW 10.4 mph - N/A Snow Light Snow
3:55 PM 23.0 °F 11.1 °F 23.0 °F 100% 29.99 in 0.5 mi SSW 12.7 mph - N/A Snow Light Snow
4:15 PM 23.0 °F 13.1 °F 23.0 °F 100% 29.98 in 0.8 mi SSW 9.2 mph - N/A Snow Light Snow
4:35 PM - - - N/A% 29.98 in 3.0 mi SSW 10.4 mph - N/A   Unknown
4:55 PM - - - N/A% 29.97 in 1.0 mi SSW 10.4 mph - N/A   Unknown
5:15 PM 24.8 °F 16.1 °F 24.8 °F 100% 29.96 in 0.5 mi South 8.1 mph - N/A Snow Light Snow
5:35 PM 24.8 °F 16.1 °F 24.8 °F 100% 29.97 in 1.0 mi SSW 8.1 mph - N/A Snow Light Snow
5:55 PM 24.8 °F 16.1 °F 24.8 °F 100% 29.95 in 4.0 mi SW 8.1 mph - N/A   Overcast
6:15 PM 26.6 °F 19.1 °F 26.6 °F 100% 29.95 in 7.0 mi SW 6.9 mph - N/A   Overcast
6:35 PM 26.6 °F 21.2 °F 26.6 °F 100% 29.95 in 7.0 mi SW 4.6 mph - N/A   Overcast
6:55 PM 28.4 °F 19.1 °F 28.4 °F 100% 29.94 in 7.0 mi WSW 10.4 mph - N/A   Mostly Cloudy
7:15 PM 32.0 °F 21.2 °F 32.0 °F 100% 29.94 in 10.0 mi WNW 16.1 mph 24.2 mph N/A   Overcast
7:35 PM 33.8 °F 21.0 °F 33.8 °F 100% 29.95 in 10.0 mi NW 25.3 mph 31.1 mph N/A   Overcast
7:55 PM 33.8 °F 21.9 °F 32.0 °F 93% 29.95 in 10.0 mi NW 21.9 mph 29.9 mph 0.01 in   Overcast
8:15 PM 33.8 °F 21.9 °F 30.2 °F 87% 29.96 in 10.0 mi NW 21.9 mph 29.9 mph N/A   Mostly Cloudy
8:35 PM 33.8 °F 21.3 °F 30.2 °F 87% 29.96 in 10.0 mi NW 24.2 mph 31.1 mph N/A   Overcast
8:55 PM 32.0 °F 17.6 °F 28.4 °F 87% 29.97 in 7.0 mi WNW 29.9 mph 38.0 mph 0.01 in   Light Drizzle
9:15 PM 30.2 °F 14.3 °F 28.4 °F 93% 29.98 in 3.0 mi NW 34.5 mph - N/A   Light Freezing Rain
9:35 PM 28.4 °F 12.3 °F 26.6 °F 93% 30.00 in 3.0 mi NW 32.2 mph 40.3 mph N/A   Light Freezing Rain
9:55 PM 24.8 °F 9.0 °F 21.2 °F 86% 30.01 in 7.0 mi NW 25.3 mph 35.7 mph N/A   Mostly Cloudy
10:15 PM 26.6 °F 11.4 °F 23.0 °F 86% 30.01 in 9.0 mi NW 25.3 mph 32.2 mph N/A   Overcast
10:35 PM 24.8 °F 9.6 °F 21.2 °F 86% 30.02 in 9.0 mi NW 23.0 mph 29.9 mph N/A   Overcast
10:55 PM 24.8 °F 10.7 °F 21.2 °F 86% 30.02 in 10.0 mi NW 19.6 mph 28.8 mph N/A   Overcast
11:15 PM 24.8 °F 10.7 °F 21.2 °F 86% 30.02 in 10.0 mi NW 19.6 mph 29.9 mph N/A   Overcast
11:35 PM 23.0 °F 8.0 °F 19.4 °F 86% 30.04 in 10.0 mi NW 20.7 mph 29.9 mph N/A   Light Freezing Rain
11:55 PM 23.0 °F 9.2 °F 19.4 °F 86% 30.04 in 10.0 mi NW 17.3 mph 26.5 mph N/A   Overcast